Location: Zagreb
(45.8000°N, 16.0000°E)
Time: 13:57:39
(UTC+02:00)

Transit 2A - Pass Details

Date: 15 August 2022
Orbit: 601 x 956 km, 66.7° (Epoch: 25 September)

Event Time Altitude Azimuth Distance (km) Brightness Sun altitude
Rises 11:44:54 0° 211° (SSW) 3,146 9.4 54.4°
Reaches altitude 10° 11:47:20 10° 212° (SSW) 2,173 8.7 54.6°
Maximum altitude 11:52:15 89° 305° (NW) 667 6.8 55.1°
Drops below altitude 10° 11:56:46 10° 33° (NNE) 2,013 8.1 55.5°
Sets 11:58:58 0° 33° (NNE) 2,897 8.8 55.6°
